Location: Alfords
(31.4624°N, 83.9238°W)
Time: 12:32:39
(UTC+00:00)

ISS - Pass Details

Date: 19 September 2021
Orbit: 417 x 423 km, 51.6° (Epoch: 26 October)

Event Time Altitude Azimuth Distance (km) Brightness Sun altitude
Rises 00:57:18 0° 271° (W) 2,352 1.6 -17.8°
Reaches altitude 10° 01:00:29 10° 304° (WNW) 1,493 0.1 -18.4°
Maximum altitude 01:01:52 12° 328° (NNW) 1,377 -0.5 -18.7°
Drops below altitude 10° 01:03:16 10° 353° (N) 1,497 -0.7 -19.0°
Enters shadow 01:05:33 - 19° (NNE) 2,065 -0.3 -19.5°
